[[{"header":{"parameterUnit":"m.s-1","parameterCategory":1,"la1":30.2991,"la2":30.254,"lo1":-89.0895,"lo2":-89.0444,"dy":0.0017,"dx":0.0017,"nx":28,"ny":28,"refTime":"2025-01-10T09:00:00:Z","depth":0,"parameterNumber":2,"parameterNumberName":"U-component_of_WINDS"},"data":[0,0,0,0,0,0,0,0,0,0,0,0,0,0,0,0,0,0,0,0,0,0,0,0,0,0,0,0,0,0,0,0,0,0,0,0,0,0,0,0,0,0,0,0,0,0,0,0,0,0,0,0,0,0,0,0,0,0,-4.1531,-4.1536,0,-4.196,-4.1965,-4.1969,-4.2201,-4.2202,-4.2203,-4.2203,-4.2636,-4.2647,-4.2658,0,0,0,0,0,0,0,0,0,0,0,0,0,-4.0906,-4.0916,-4.1531,-4.1536,-4.1541,-4.1959,-4.1965,-4.1971,-4.2201,-4.2202,-4.2203,-4.2203,-4.2633,-4.2646,-4.2659,0,0,0,0,0,0,0,0,0,0,0,0,0,-4.124,-4.0919,-4.153,-4.1707,-4.1727,-4.1958,-4.1965,-4.1972,-4.2201,-4.2202,-4.2203,-4.2204,-4.2628,-4.2645,-4.2661,-4.2746,0,0,-4.2711,-4.2719,0,0,0,0,0,0,0,0,-4.122,-4.1262,-4.1676,-4.1695,-4.1718,-4.2028,-4.1904,-4.2232,-4.2201,-4.2021,-4.2203,-4.2204,-4.2433,-4.2466,-4.2544,-4.2767,-4.2785,-4.2713,-4.2723,-4.273,-4.2735,0,0,0,0,0,0,0,-4.1197,-4.1245,-4.17,-4.1681,-4.1707,-4.1763,-4.1812,-4.1967,-4.2217,-4.2037,-4.2055,-4.2103,-4.2445,-4.2527,-4.2556,-4.2792,-4.2712,-4.2727,-4.2737,-4.2744,-4.3105,-4.3105,0,0,0,0,0,0,-4.1146,-4.1224,-4.1687,-4.1713,-4.1466,-4.1774,-4.1828,-4.1928,-4.2216,-4.2261,-4.2101,-4.2112,-4.2499,-4.2536,-4.2572,-4.2691,-4.273,-4.2745,-4.2755,-4.3105,-4.3105,-4.3105,0,0,0,0,0,0,-4.1132,-4.1185,-4.1669,-4.1474,-4.154,-4.1784,-4.1894,-4.1936,-4.2019,-4.2265,-4.231,-4.2141,-4.2501,-4.2549,-4.2702,-4.2709,-4.2753,-4.2768,-4.3106,-4.3105,-4.3105,-4.2929,0,0,0,0,0,0,-4.1113,-4.1179,-4.1215,-4.1473,-4.1549,-4.1793,-4.1894,-4.1943,-4.2048,-4.2065,-4.2314,-4.2355,-4.2505,-4.2676,-4.2718,-4.2733,-4.2781,-4.3106,-4.3105,-4.3105,-4.2935,-4.2923,-4.2912,0,0,0,0,0,-4.109,-4.1148,-4.1216,-4.127,-4.16,-4.1793,-4.1837,-4.201,-4.2047,-4.2085,-4.2243,-4.2347,-4.2701,-4.2689,-4.2739,-4.2759,-4.3106,-4.3106,-4.3105,-4.294,-4.2925,-4.2912,0,0,0,0,0,0,-4.0883,-4.1185,-4.1264,-4.1407,-4.1573,-4.1832,-4.1885,-4.1988,-4.2145,-4.2155,-4.2361,-4.2415,-4.2548,-4.2669,-4.265,-4.2856,-4.2915,-4.2924,-4.2773,-4.276,-4.2748,-4.2716,-4.2794,0,0,0,0,0,-4.0854,-4.0987,-4.1243,-4.1344,-4.1424,-4.1639,-4.1729,-4.1849,-4.2028,-4.2099,-4.2268,-4.2436,-4.2586,-4.268,-4.2831,-4.2954,-4.301,-4.2992,-4.298,-4.2969,-4.2974,-4.3048,-4.3042,-4.3102,-4.3102,-4.3102,0,0,-4.0795,-4.0977,-4.1048,-4.1307,-4.145,-4.1581,-4.1697,-4.1831,-4.193,-4.2119,-4.2274,-4.2403,-4.2605,-4.2742,-4.2812,-4.2847,-4.297,-4.2968,-4.2957,-4.297,-4.3046,-4.304,-4.3035,-4.3102,-4.3102,-4.3102,0,0,-4.0756,-4.0907,-4.1008,-4.1148,-4.1363,-4.1506,-4.1529,-4.1774,-4.1867,-4.2027,-4.2171,-4.229,-4.2543,-4.2681,-4.2784,-4.2794,-4.2896,-4.2838,-4.2776,-4.2845,-4.2841,-4.2837,-4.2841,-4.284,-4.2842,-4.2842,-4.2842,0,-4.0655,-4.0861,-4.1046,-4.1173,-4.1282,-4.146,-4.1563,-4.169,-4.1941,-4.2011,-4.2048,-4.237,-4.2518,-4.269,-4.2692,-4.277,-4.2802,-4.2811,-4.2827,-4.2825,-4.2825,-4.2831,-4.2831,-4.2833,-4.2834,-4.2835,-4.2836,0,-4.0727,-4.0867,-4.0922,-4.1163,-4.1278,-4.1392,-4.1592,-4.1686,-4.1794,-4.1932,-4.2091,-4.2275,-4.2466,-4.2516,-4.2622,-4.2703,-4.2718,-4.2788,-4.2851,-4.2808,-4.2816,-4.282,-4.2821,-4.2824,-4.2827,-4.2829,0,0,-4.057,-4.0911,-4.0928,-4.1039,-4.1289,-4.14,-4.152,-4.1709,-4.1785,-4.1952,-4.2057,-4.2267,-4.2333,-4.2449,-4.2573,-4.2633,-4.2629,-4.2696,-4.2704,-4.2677,-4.2728,-4.2674,-4.2673,-4.2698,-4.2699,-4.27,-4.2711,0,-4.0566,-4.0794,-4.0963,-4.1125,-4.1256,-4.1426,-4.1531,-4.1693,-4.1825,-4.1954,-4.2099,-4.2244,-4.2321,-4.2392,-4.2459,-4.2615,-4.2642,-4.2616,-4.2796,-4.2801,-4.2741,-4.2678,-4.2622,-4.2624,-4.2716,-4.2716,-4.2717,0,-4.0593,-4.0756,-4.093,-4.1165,-4.1226,-4.1318,-4.1504,-4.1625,-4.1812,-4.1904,-4.2033,-4.216,-4.2293,-4.2343,-4.2528,-4.2507,-4.259,-4.2677,-4.2682,-4.2705,-4.2756,-4.2699,-4.2629,-4.2628,-4.2724,-4.2723,-4.2723,0,-4.046,-4.0723,-4.0862,-4.0951,-4.1228,-4.1288,-4.1406,-4.1595,-4.1697,-4.1859,-4.1927,-4.21,-4.2195,-4.2326,-4.2496,-4.2517,-4.2663,-4.2727,-4.2742,-4.2737,-4.2765,-4.2761,-4.2706,-4.2818,-4.2818,-4.2818,-4.2818,0,-4.0439,-4.0539,-4.0806,-4.0891,-4.1007,-4.1199,-4.1309,-4.1441,-4.1607,-4.1719,-4.1876,-4.1978,-4.2197,-4.2324,-4.2458,-4.259,-4.2632,-4.2708,-4.2742,-4.2694,-4.2684,-4.2752,-4.2756,-4.2818,-4.2818,-4.2818,-4.2818,0,-4.0311,-4.0494,-4.0656,-4.0905,-4.097,-4.1044,-4.1257,-4.1345,-4.1485,-4.1625,-4.1669,-4.1888,-4.2046,-4.2229,-4.2446,-4.2536,-4.2658,-4.2709,-4.2595,-4.2615,-4.2619,-4.2615,-4.2605,-4.2613,-4.2717,-4.2716,-4.2715,0,-4.0285,-4.0366,-4.0624,-4.0711,-4.0825,-4.0963,-4.1069,-4.126,-4.1363,-4.1582,-4.1643,-4.1813,-4.196,-4.2204,-4.2382,-4.2549,-4.2604,-4.2589,-4.263,-4.2579,-4.2604,-4.2597,-4.2605,-4.2577,-4.2575,-4.2573,-4.2572,0,-4.0219,-4.0305,-4.0452,-4.063,-4.0751,-4.09,-4.1055,-4.1117,-4.1339,-4.1446,-4.1611,-4.1724,-4.1947,-4.2114,-4.2303,-4.2423,-4.2534,-4.2558,-4.257,-4.2521,-4.2452,-4.2489,-4.2564,-4.2557,-4.2559,-4.256,-4.256,-4.2561,-4.0142,-4.0222,-4.0416,-4.0573,-4.071,-4.0851,-4.0946,-4.1098,-4.1239,-4.1436,-4.154,-4.1702,-4.1886,-4.2152,-4.2268,-4.2396,-4.2434,-4.2451,-4.2456,-4.2457,-4.2443,-4.2431,-4.2431,-4.2432,-4.2433,-4.2433,-4.2434,0,-4.0085,-4.0217,-4.036,-4.0573,-4.0696,-4.0791,-4.0967,-4.1063,-4.1205,-4.1368,-4.1509,-4.1697,-4.1859,-4.2048,-4.2222,-4.2289,-4.2344,-4.2328,-4.2325,-4.235,-4.24,-4.2372,-4.228,-4.228,-4.228,-4.228,-4.228,-4.228,-4.0069,-4.0209,-4.0317,-4.0525,-4.0658,-4.0819,-4.0911,-4.1042,-4.1173,-4.1376,-4.1512,-4.1635,-4.1809,-4.1997,-4.2149,-4.2201,-4.2257,-4.2225,-4.2291,-4.2334,-4.2347,-4.2359,-4.2334,-4.2236,-4.2236,-4.2232,-4.2232,-4.2232]},{"header":{"parameterUnit":"m.s-1","parameterCategory":1,"la1":30.2991,"la2":30.254,"lo1":-89.0895,"lo2":-89.0444,"dy":0.0017,"dx":0.0017,"nx":28,"ny":28,"refTime":"2025-01-10T09:00:00:Z","depth":0,"parameterNumber":3,"parameterNumberName":"V-component_of_WINDS"},"data":[0,0,0,0,0,0,0,0,0,0,0,0,0,0,0,0,0,0,0,0,0,0,0,0,0,0,0,0,0,0,0,0,0,0,0,0,0,0,0,0,0,0,0,0,0,0,0,0,0,0,0,0,0,0,0,0,0,0,11.9772,11.9774,0,11.9973,11.9975,11.9977,11.9964,11.9961,11.9958,11.9956,12.0146,12.0153,12.0161,0,0,0,0,0,0,0,0,0,0,0,0,0,11.9363,11.937,11.9772,11.9774,11.9777,11.9972,11.9975,11.9978,11.9965,11.9961,11.9958,11.9954,12.0143,12.0152,12.0162,0,0,0,0,0,0,0,0,0,0,0,0,0,11.9549,11.9373,11.9771,11.9794,11.9798,11.9972,11.9975,11.9979,11.9965,11.9961,11.9957,11.9953,12.014,12.0151,12.0163,12.0322,0,0,12.0198,12.0204,0,0,0,0,0,0,0,0,11.9539,11.9564,11.9788,11.9793,11.9798,11.9939,11.9901,12.0093,11.9967,11.9901,11.9956,11.995,12.0079,12.0096,12.0143,12.0331,12.0339,12.02,12.0207,12.0212,12.0215,0,0,0,0,0,0,0,11.9526,11.9555,11.9851,11.9791,11.9797,11.979,11.9812,11.9937,12.0012,11.9907,11.9906,11.9931,12.0081,12.0131,12.0147,12.0342,12.0199,12.021,12.0217,12.0221,12.0671,12.0676,0,0,0,0,0,0,11.951,11.9545,11.9844,11.9857,11.9655,11.9801,11.9825,11.9898,12.0011,12.0024,11.9935,11.993,12.0114,12.0133,12.0153,12.0348,12.0211,12.0222,12.0229,12.0666,12.0672,12.0678,0,0,0,0,0,0,11.9501,11.9537,11.9836,11.9701,11.9739,11.9813,11.9894,11.9904,11.9955,12.0032,12.0044,11.9973,12.0111,12.0137,12.0282,12.0354,12.0228,12.0238,12.066,12.0668,12.0675,12.0738,0,0,0,0,0,0,11.9489,11.9534,11.9598,11.9703,11.9746,11.9965,11.9899,11.9911,11.9977,11.9972,12.0071,12.0083,12.011,12.0264,12.0293,12.0368,12.0247,12.0654,12.0664,12.0673,12.073,12.0747,12.0761,0,0,0,0,0,11.9475,11.9604,11.9601,11.9638,11.9829,11.9969,11.9994,12.0026,11.9983,12.0046,12.0096,12.008,12.0342,12.0279,12.0311,12.0391,12.065,12.0661,12.0672,12.0722,12.0743,12.0761,0,0,0,0,0,0,11.9499,11.9618,11.9616,11.9784,11.9868,11.9967,12.0048,12.0046,12.0139,12.0131,12.0162,12.0184,12.033,12.0374,12.0302,12.0551,12.049,12.0508,12.0517,12.0537,12.0553,12.0538,12.0257,0,0,0,0,0,11.9526,11.9635,11.973,11.9869,11.9912,11.9973,12.0035,12.0054,12.0139,12.0172,12.0232,12.0312,12.0412,12.0477,12.0573,12.0736,12.0757,12.0807,12.0823,12.0835,12.085,12.094,12.0963,12.0714,12.0714,12.0714,0,0,11.9578,11.9657,11.9722,11.9876,11.9943,12.0051,12.0002,12.0118,12.0198,12.0188,12.033,12.0377,12.0467,12.0622,12.0693,12.0664,12.0924,12.0849,12.0859,12.0867,12.0954,12.0977,12.0998,12.0722,12.072,12.0719,0,0,11.973,11.9801,11.9926,11.9995,12.0099,12.014,12.017,12.0271,12.0303,12.0448,12.0443,12.0535,12.0707,12.0773,12.0828,12.1008,12.0997,12.1038,12.112,12.1207,12.1227,12.1244,12.1308,12.1331,12.1053,12.1053,12.1053,0,11.9781,11.995,11.9988,12.0108,12.0174,12.0177,12.0301,12.0364,12.0492,12.0536,12.0503,12.0721,12.0782,12.0952,12.0997,12.1042,12.1075,12.1026,12.1222,12.124,12.1256,12.1318,12.1342,12.1057,12.1057,12.1056,12.1056,0,12.0007,12.0124,12.0211,12.0342,12.0418,12.0538,12.0591,12.0663,12.0675,12.0718,12.0864,12.0938,12.105,12.1091,12.1101,12.1264,12.1243,12.1216,12.1154,12.1284,12.1342,12.1366,12.1064,12.1062,12.1061,12.106,0,0,12.0178,12.0332,12.0363,12.0423,12.0539,12.0628,12.0747,12.0863,12.0924,12.1012,12.1111,12.1259,12.1236,12.1299,12.1316,12.1393,12.1531,12.1356,12.1359,12.1386,12.1714,12.1734,12.1761,12.1525,12.153,12.1534,12.1707,0,12.0342,12.0562,12.06,12.0789,12.0897,12.0902,12.1006,12.1086,12.1129,12.1223,12.1268,12.1373,12.1334,12.1373,12.1449,12.1498,12.1597,12.1486,12.1615,12.1619,12.1592,12.1791,12.1812,12.1972,12.1729,12.1733,12.1736,0,12.0563,12.0664,12.0866,12.097,12.1016,12.111,12.1219,12.131,12.14,12.1426,12.1499,12.1509,12.1629,12.1564,12.173,12.1653,12.1708,12.174,12.1747,12.1759,12.1685,12.1808,12.2023,12.2047,12.1772,12.1769,12.1767,0,12.0668,12.0853,12.0999,12.105,12.1174,12.124,12.1294,12.1381,12.1448,12.1542,12.1586,12.1691,12.1748,12.1827,12.1863,12.1812,12.2026,12.1963,12.2049,12.2048,12.2092,12.2089,12.2319,12.2129,12.2128,12.2128,12.2127,0,12.0847,12.097,12.1048,12.1137,12.1275,12.1317,12.145,12.1501,12.1579,12.1675,12.1683,12.1772,12.1816,12.191,12.1939,12.2071,12.2096,12.2119,12.2124,12.2118,12.2115,12.2153,12.2143,12.2134,12.2133,12.2131,12.213,0,12.0986,12.1045,12.1203,12.1311,12.134,12.1437,12.1526,12.1611,12.1655,12.1777,12.1808,12.1875,12.1987,12.2033,12.2167,12.2187,12.234,12.2337,12.2311,12.2313,12.2396,12.2387,12.2658,12.2695,12.248,12.2482,12.2484,0,12.1097,12.1193,12.1312,12.1381,12.1439,12.1547,12.1618,12.1662,12.1735,12.1846,12.1917,12.2031,12.2124,12.2302,12.236,12.2464,12.2464,12.2552,12.2479,12.247,12.2465,12.2459,12.2468,12.2564,12.2566,12.2568,12.257,0,12.1287,12.1312,12.1416,12.1532,12.1618,12.1709,12.1798,12.1852,12.1909,12.1989,12.2108,12.2181,12.2322,12.2434,12.2542,12.2592,12.259,12.2593,12.2618,12.2612,12.2593,12.2605,12.2347,12.2586,12.2584,12.2583,12.2582,12.2581,12.1415,12.1502,12.1601,12.1717,12.179,12.1873,12.196,12.2017,12.2118,12.2241,12.2259,12.2385,12.2472,12.2618,12.2674,12.277,12.2747,12.2783,12.2792,12.28,12.2806,12.2579,12.2789,12.2789,12.2789,12.2788,12.2788,0,12.1606,12.1671,12.1778,12.1905,12.1996,12.1993,12.2091,12.2166,12.2279,12.2363,12.2457,12.2593,12.2702,12.277,12.2879,12.2943,12.2945,12.297,12.2966,12.2977,12.2821,12.2788,12.2968,12.2968,12.2967,12.2967,12.2967,12.2967,12.1716,12.1862,12.1899,12.208,12.2143,12.2271,12.2328,12.2404,12.2472,12.2625,12.2718,12.2764,12.2842,12.2957,12.3056,12.3073,12.3112,12.314,12.3155,12.3007,12.2988,12.297,12.294,12.3148,12.3148,12.3303,12.3305,12.3306]}]]